This is the latest recevied weather packets stored in our database for station/object DL4ABR-6. If no packets are shown the sender has not sent any weather packets the latest 10 day(s).
| Time | Temp. | Humidity | Pressure | Rain* | Wind** | Luminosity | Snow |
|---|---|---|---|---|---|---|---|
| 1777645050 | 25° C | 35% | 1022.4 hPa | 0 mm | - | - | - |
| 1777644320 | 23.89° C | 34% | 1022.4 hPa | 0 mm | - | - | - |
| 1777643440 | 22.78° C | 35% | 1022.5 hPa | 0 mm | - | - | - |
| 1777642675 | 23.89° C | 37% | 1022.9 hPa | 0 mm | - | - | - |
| 1777641870 | 23.89° C | 36% | 1023 hPa | 0 mm | - | - | - |
| 1777641130 | 22.78° C | 37% | 1023.2 hPa | 0 mm | - | - | - |
| 1777638820 | 23.89° C | 37% | 1023.6 hPa | 0 mm | - | - | - |
| 1777637940 | 22.78° C | 38% | 1023.6 hPa | 0 mm | - | - | - |
| 1777637201 | 22.78° C | 36% | 1023.8 hPa | 0 mm | - | - | - |
| 1777636330 | 22.78° C | 39% | 1023.8 hPa | 0 mm | - | - | - |
| 1777635430 | 22.22° C | 38% | 1023.9 hPa | 0 mm | - | - | - |
| 1777634555 | 21.67° C | 39% | 1024.2 hPa | 0 mm | - | - | - |
| 1777633690 | 21.11° C | 39% | 1024.1 hPa | 0 mm | - | - | - |
| 1777632830 | 21.67° C | 38% | 1024.6 hPa | 0 mm | - | - | - |
| 1777632105 | 21.11° C | 39% | 1024.5 hPa | 0 mm | - | - | - |
| 1777631275 | 21.11° C | 39% | 1024.7 hPa | 0 mm | - | - | - |
| 1777630470 | 21.67° C | 40% | 1024.9 hPa | 0 mm | - | - | - |
| 1777629735 | 21.11° C | 39% | 1025.1 hPa | 0 mm | - | - | - |
| 1777628924 | 21.11° C | 41% | 1025.2 hPa | 0 mm | - | - | - |
| 1777628185 | 20° C | 41% | 1025.4 hPa | 0 mm | - | - | - |
| 1777627435 | 20.56° C | 41% | 1025.4 hPa | 0 mm | - | - | - |
| 1777626604 | 20° C | 41% | 1025.3 hPa | 0 mm | - | - | - |
| 1777625735 | 20.56° C | 42% | 1025.2 hPa | 0 mm | - | - | - |
| 1777624100 | 18.89° C | 45% | 1025.8 hPa | 0 mm | - | - | - |
| 1777623344 | 17.78° C | 47% | 1025.8 hPa | 0 mm | - | - | - |
* Rain since midnight (hover to see other rain measurements)
** Current wind speed in m/s (hover to see current wind gust speed)